Weather in Dmitriyevskoye

Russia / Stavropol Krai     45°48′28″N   41°53′33″E
temp.,
°C
wind,
m/s
gust,
m/s
humid.,
%
clouds,
%
prec.,
mm/h
press.,
hPa
HPBL,
m
25 january, mon
mon2500:00−1ese4886100 0.0 1020172
03:00−1ese468695 0.0 1019107
06:00−1ese348263 0.0 102048
09:00+1ese337572 0.0 102082
12:00+5ese466557 0.0 1020202
15:00+6e477028 0.0 1019262
18:00+1ese510830 0.0 1019199
21:00+1ese611810 0.0 1018212
26 january, tue
tue2600:000ese598449 0.0 1017173
03:000ese598374 0.0 1016158
06:000ese3484100 0.0 101764
09:00+2se2375100 0.0 101943
12:00+6sse2366100 0.0 1019115
15:00+6ese3475100 0.0 101982
18:00+4ese457584 0.0 102073
21:00+3ese458290 0.0 101984
27 january, wed
wed2700:00+3ese3482100 0.0 101951
03:00+3ese4681100 0.0 101796
06:00+2e61083100 0.0 1015211
09:00+3ese71277100 0.0 1014350
12:00+5ese71174100 0.0 1012454
15:00+5ese81377100 0.0 1010504
18:00+4ese71487100 0.0 1009522
21:00+3ese61386100 0.0 1009447
28 january, thu
thu2800:00+3ese61288100 0.0 1008330
03:00+3ese61192100 0.0 1007279
06:00+3ese51193100 0.0 1006293
09:00+3ene3389100 0.0 100767
12:00+7ne3373100 0.0 1007289
15:00+7ene337496 0.0 1005355
18:00+6e2284100 0.0 1006107
21:00+5wnw2391100 0.4 100897
29 january, fri
fri2900:00+4wnw71191100 0.4 1008550
03:00+2wnw51082100 0.6 1010596
06:00+1wnw4981100 0.0 1011418
09:00+1wnw5878100 0.0 1012572
12:00+2wnw5664100 0.0 1013838
15:00+3wnw4558100 0.0 1012849
18:00+1w2369100 0.0 101341
21:000wsw2277100 0.0 101323